Location: Borgo
(42.3939°N, 9.2791°E)
Time: 22:10:52
(UTC+00:00)

Cosmos 2297 Rocket - Pass Details

Date: 27 February 2020
Orbit: 838 x 844 km, 71.0° (Epoch: 05 April)

Event Time Altitude Azimuth Distance (km) Brightness Sun altitude
Rises 19:39:28 0° 336° (NNW) 3,412 5.9 -28.3°
Reaches altitude 10° 19:41:56 10° 337° (NNW) 2,473 5.1 -28.7°
Enters shadow 19:46:36 61° 351° (N) 955 2.4 -29.5°
